Flag for U.S.A. Weather past 2 weeks in Tyler, Texas, U.S.A.

Now
76 °F

Sunny.


Feels Like: 78 °F
Forecast: 58 / 80 °F
Wind: 14 mph from South

Location: Tyler Pounds Field

Current Time: May 3, 2015 at 1:02:12 PM

Latest Report: May 3, 2015 at 11:53 AM


Visibility: 10 mi

Pressure: 30.05 "Hg

Humidity: 48%

Dew point: 55 °F

Location of TylerLocation

Historic Weather in Tyler — Graph

°F

Tyler temperature yesterday

Maximum temperature yesterday: 82 °F (at 2:53 PM)
Minimum temperature yesterday: 60 °F (at 4:53 AM)
Average temperature yesterday: 71 °F

Past Weeks' High & Low Weather Summary

 TemperatureHumidityPressure
High87 °F (Apr 25, 4:53 PM)96% (Apr 25, 6:53 AM)30.08 "Hg (Apr 25, 6:53 AM)
Low48 °F (Apr 29, 6:53 AM)26% (Apr 25, 4:53 PM)29.60 "Hg (Apr 26, 5:53 PM)
Average68 °F68%29.88 "Hg
* Reported Apr 18 11:53 AM — May 3 11:53 AM, Tyler, Weather by CustomWeather, © 2015

Note: Actual official high and low records may vary slightly from our data, if they occured in-between our weather recording intervals... More about our weather records

Advertising

Tyler weather history for previous 24 hours

 ConditionsComfort  
Time TempWeatherWind HumidityBarometerVisibility
11:53 AM
Sun, May 3
76 °FSunny.14 mph48%30.05 "Hg10 mi
10:53 AM74 °FSunny.14 mph53%30.05 "Hg10 mi
9:53 AM72 °FSunny.16 mph59%30.04 "Hg10 mi
8:53 AM67 °FSunny.7 mph76%30.04 "Hg10 mi
7:53 AM63 °FSunny.6 mph81%30.03 "Hg10 mi
6:53 AM59 °FClear.6 mph90%30.01 "Hg9 mi
5:53 AM61 °FClear.5 mph81%29.99 "Hg10 mi
4:53 AM63 °FClear.6 mph78%29.99 "Hg10 mi
3:53 AM64 °FClear.7 mph75%29.98 "Hg10 mi
2:53 AM66 °FClear.8 mph73%29.98 "Hg10 mi
1:53 AM63 °FClear.7 mph78%29.99 "Hg10 mi
12:53 AM64 °FClear.5 mph75%29.99 "Hg10 mi
11:53 PM
Sat, May 2
65 °FClear.5 mph73%29.99 "Hg10 mi
10:53 PM66 °FClear.5 mph75%29.99 "Hg10 mi
9:53 PM69 °FClear.5 mph68%29.98 "Hg10 mi
8:53 PM70 °FSunny.3 mph66%29.97 "Hg10 mi
7:53 PM75 °FSunny.6 mph52%29.96 "Hg10 mi
6:53 PM80 °FSunny.7 mph39%29.96 "Hg10 mi
5:53 PM81 °FSunny.7 mph37%29.97 "Hg10 mi
4:53 PM82 °FSunny.10 mph37%29.97 "Hg10 mi
3:53 PM82 °FPassing clouds.8 mph35%30.00 "Hg10 mi
2:53 PM82 °FSunny.7 mph34%30.02 "Hg10 mi
1:53 PM81 °FSunny.5 mph33%30.04 "Hg10 mi
Weather by CustomWeather, © 2015

See weather overviewHow to use our weather pages